User: anonymous   Login
Location: Milton Keynes
(52.0316°N, 0.7531°W)
Time: 17:22:06
(UTC+00:00)
Language:

ISS - Orbit

View from above orbital plane
View from above orbital plane
View from above satellite
View from above satellite

Ground track
Ground track

The orbit data is extracted from the following two-line orbital elements,

1 25544U 98067A   22335.45933344  .00009024  00000-0  16786-3 0  9996
2 25544  51.6453 227.9341 0004477 115.9922  56.3514 15.49661165371127
Epoch (UTC): 01 December 2022 11:01:26
Eccentricity: 0.0004477
inclination: 51.6453°
perigee height: 414 km
apogee height: 421 km
right ascension of ascending node: 227.9341°
argument of perigee: 115.9922°
revolutions per day: 15.49661165
mean anomaly at epoch: 56.3514°
orbit number at epoch: 37112

The dashed part of the orbit path shows where the satellite is in the earth's shadow,  

DLR